Weather History for KRIV - April, 2013

Change the Weather History Date:

Monday, April 22, 2013

  Actual Average (KRAL) Record (KRAL)
Temperature  
Mean Temperature 62 °F 64 °F  
Max Temperature 80 °F 77 °F 100 °F (1910)
Min Temperature 45 °F 52 °F 31 °F (1932)
Degree Days  
Heating Degree Days 3 3  
Month to date heating degree days 88  
Since 1 July heating degree days 1401  
Cooling Degree Days 0 2  
Month to date cooling degree days 26  
Year to date cooling degree days 47  
Growing Degree Days 12 (Base 50)    
Moisture  
Dew Point 47 °F    
Average Humidity 72    
Maximum Humidity 100    
Minimum Humidity 28    
Precipitation  
Precipitation 0.00 in 0.03 in 0.49 in (1914)
Month to date precipitation 0.57  
Year to date precipitation 8.56  
Snow  
Snow 0.00 in - - ()
Month to date snowfall  
Since 1 July snowfall  
Snow Depth -    
Sea Level Pressure  
Sea Level Pressure 29.94 in    
Wind  
Wind Speed 3 mph (NW)    
Max Wind Speed 15 mph    
Max Gust Speed 17 mph    
Visibility 8 miles    
Events Fog    
T = Trace of Precipitation, MM = Missing Value Source: NWS Daily Summary

Daily Weather History Graph

Daily Weather History Graph

Search for Another Location

Airport or City:

Trip Planner

Search our weather history database for the weather conditions in past years. The results will help you decide how hot, cold, wet, or windy it might be!

Date:

Astronomy

Apr. 22, 2013 Rise Set
Actual Time 6:09 AM PDT 7:25 PM PDT
Civil Twilight 5:43 AM PDT 7:52 PM PDT
Nautical Twilight 5:12 AM PDT 8:23 PM PDT
Astronomical Twilight 4:39 AM PDT 8:55 PM PDT
Moon 4:27 PM PDT (4/22) 3:57 AM PDT (4/22)
Length of Visible Light 14h 08m
Length of Day
13h 16m
Waxing Gibbous, 88% of the Moon is Illuminated
Apr 22
Waxing Gibbous
Apr 25
Full
May 2
Last Quarter
May 9
New
May 17
First Quarter

Hourly Weather History & Observations

Time (PDT) Temp. Windchill Dew Point Humidity Pressure Visibility Wind Dir Wind Speed Gust Speed Precip Events Conditions
12:58 AM 54.7 °F - 45.3 °F 71% 29.98 in 10.0 mi Calm Calm - N/A   Clear
1:58 AM 51.3 °F - 43.5 °F 75% 29.97 in 10.0 mi West 2.3 mph - N/A   Clear
2:58 AM 48.4 °F - 41.9 °F 78% 29.96 in 10.0 mi Calm Calm - N/A   Clear
3:58 AM 45.3 °F - 37.6 °F 74% 29.95 in 10.0 mi Calm Calm - N/A   Clear
4:58 AM 45.3 °F - 39.7 °F 81% 29.95 in 10.0 mi Calm Calm - N/A   Clear
5:58 AM 49.8 °F - 47.1 °F 90% 29.95 in 10.0 mi WNW 2.3 mph - N/A   Clear
6:15 AM 46.4 °F 43.5 °F 42.8 °F 87% 29.97 in 0.8 mi NW 5.8 mph - N/A   Scattered Clouds
6:18 AM 46.4 °F 42.9 °F 44.6 °F 93% 29.98 in 0.5 mi NNW 6.9 mph - N/A Fog Fog
6:38 AM 50.0 °F - 48.2 °F 94% 29.98 in 0.2 mi NW 2.3 mph - N/A Fog Fog
6:58 AM 50.0 °F - 50.0 °F 100% 29.97 in 0.2 mi West 3.5 mph - N/A Fog Fog
7:21 AM 50.0 °F - 50.0 °F 100% 29.98 in 0.4 mi NNW 3.5 mph - N/A Fog Fog
7:35 AM 51.8 °F - 51.8 °F 100% 29.99 in 0.8 mi NW 2.3 mph - N/A   Mostly Cloudy
7:41 AM 51.8 °F - 51.8 °F 100% 29.99 in 1.2 mi NW 2.3 mph - N/A   Scattered Clouds
7:58 AM 53.6 °F - 53.6 °F 100% 29.99 in 7.0 mi NW 2.3 mph - N/A   Partly Cloudy
8:58 AM 61.7 °F - 53.2 °F 74% 29.98 in 10.0 mi North 2.3 mph - N/A   Clear
9:58 AM 67.5 °F - 51.4 °F 56% 29.97 in 10.0 mi Variable 5.8 mph - N/A   Clear
10:58 AM 70.7 °F - 51.3 °F 50% 29.97 in 10.0 mi Variable 3.5 mph - N/A   Clear
11:58 AM 75.2 °F - 44.8 °F 34% 29.95 in 10.0 mi Variable 4.6 mph - N/A   Partly Cloudy
1:58 PM 79.0 °F - 47.8 °F 33% 29.91 in 10.0 mi NNW 9.2 mph - N/A   Clear
2:58 PM 79.2 °F - 49.1 °F 35% 29.89 in 10.0 mi NNW 10.4 mph 17.3 mph 0.00 in   Clear
4:58 PM 77.4 °F - 42.1 °F 28% 29.86 in 10.0 mi WNW 15.0 mph - N/A   Partly Cloudy
5:58 PM 73.9 °F - 46.0 °F 37% 29.86 in 10.0 mi NW 15.0 mph - N/A   Clear
6:58 PM 69.4 °F - 44.1 °F 40% 29.86 in 10.0 mi NW 10.4 mph - N/A   Clear
7:58 PM 62.4 °F - 48.9 °F 61% 29.90 in 10.0 mi West 4.6 mph - N/A   Clear
8:58 PM 57.9 °F - 49.3 °F 73% 29.92 in 10.0 mi NNW 5.8 mph - N/A   Clear
9:58 PM 55.6 °F - 49.6 °F 80% 29.93 in 10.0 mi Calm Calm - N/A   Clear
10:58 PM 53.1 °F - 47.5 °F 81% 29.92 in 10.0 mi NNW 2.3 mph - N/A   Clear
11:58 PM 51.4 °F - 46.9 °F 85% 29.92 in 10.0 mi WNW 2.3 mph - N/A   Clear